Theta_e
292 293 294 296 300 300 300 301 302 300 299 298 298 297 296 296 296 296 296 295 296 296
289 290 291 292 293 295 297 299 301 301 300 298 297 297 296 295 294 294 295 296 296 295
288 289 289 290 290 291 292 293 295 298 300 299 297 296 295 294 294 293 293 294 295 295
287 287 287 286 287 288 289 290 291 294 295 297 297 295 294 294 293 292 292 293 293 294
286 286 285 284 284 285 285 286 288 290 293 295 296 296 294 293 293 292 291 293 292 293
283 282 280 281 282 283 282 284 285 287 287 288 289 291 294 294 292 292 292 292 292 293
281 281 279 277 275 276 278 279 282 284 285 285 286 288 287 290 291 290 290 292 292 293
278 277 274 272 272 274 274 276 277 283 284 285 287 290 289 289 288 288 288 289 291 292
275 275 271 270 270 270 272 273 274 275 279 283 286 288 290 290 288 287 286 286 288 289
272 272 272 271 270 269 271 273 272 273 276 278 282 287 289 289 287 287 286 285 287 287
271 273 271 270 271 271 273 272 274 274 275 276 280 286 287 288 286 286 286 285 285 286
269 273 268 270 269 271 274 276 274 276 275 275 275 286 287 287 285 285 286 286 283 286
271 272 271 272 271 271 273 276 280 279 276 275 277 284 287 287 285 285 284 285 285 284
273 274 274 273 274 274 273 276 272 276 276 275 277 278 287 288 284 285 285 285 284 285
Wind_Speed
10 7 7 7 4 3 1 3 2 3 4 3 4 3 3 1 0 2 2 4 3 1
9 9 8 9 8 7 6 4 3 2 4 5 5 5 4 3 3 2 1 3 3 1
7 8 8 7 9 8 9 10 8 5 2 4 4 4 4 3 3 3 2 3 2 1
6 7 7 8 8 8 7 7 6 6 5 3 4 4 4 4 4 4 4 4 3 2
5 5 6 6 7 8 8 9 9 9 7 6 3 4 4 4 4 5 5 4 3 3
4 4 3 4 5 6 6 7 9 9 8 8 7 6 2 3 4 4 4 5 4 4
2 3 3 3 3 3 3 3 6 8 8 6 5 5 4 4 3 4 4 4 5 4
3 2 2 3 4 4 4 3 2 6 8 8 6 4 4 4 4 3 4 4 4 4
3 3 3 3 3 4 4 4 3 2 3 6 5 10 10 6 4 3 4 4 5 4
4 4 4 3 3 4 4 3 4 3 2 2 4 11 11 8 3 3 4 5 4 5
4 5 4 4 4 4 2 2 3 3 4 2 2 9 10 9 2 3 4 3 5 5
4 7 4 6 5 4 3 2 2 3 4 3 4 7 9 8 3 3 3 3 3 5
6 6 6 6 6 4 3 3 3 4 3 5 5 7 7 6 3 3 1 3 4 8
6 6 6 5 4 3 4 3 4 5 4 5 5 5 5 6 1 1 3 2 2 3
Wind_Direction
22 22 18 16 38 43 12 46 136 164 170 181 170 175 179 195 43 2 357 300 284 258
16 20 21 18 18 13 13 359 35 223 190 180 188 184 174 196 197 181 300 280 269 244
12 13 17 21 23 15 2 4 1 353 308 197 187 186 183 179 172 189 194 281 266 220
18 19 17 13 6 7 1 1 354 345 340 350 179 180 190 196 178 184 196 223 239 261
41 30 25 12 357 357 0 0 352 350 349 349 340 182 182 198 190 192 192 203 201 222
22 41 26 1 349 354 357 353 359 2 1 349 344 345 333 213 202 200 192 194 195 198
333 351 348 336 343 345 333 347 0 1 355 346 337 326 318 308 245 217 206 199 195 196
258 281 306 327 326 324 343 330 311 12 8 3 358 4 347 301 279 242 232 221 210 203
247 267 278 292 302 325 323 320 358 31 358 11 4 358 345 335 304 264 231 230 211 212
244 246 254 256 307 310 310 326 329 336 7 5 342 359 347 342 307 273 238 229 216 198
275 264 274 284 268 275 269 289 302 309 317 318 329 352 355 346 300 244 238 225 217 209
268 267 234 245 257 263 267 279 278 282 306 313 298 331 353 352 322 270 229 216 228 213
286 258 245 235 238 236 228 256 275 291 276 280 284 318 340 3 332 311 257 209 221 234
312 282 258 242 217 209 234 258 281 283 284 276 267 275 319 348 56 289 282 230 224 215